Location: Béaulencourt
(50.0796°N, 2.8795°E)
Time: 00:01:50
(UTC+00:00)

Cosmos 1805 Rocket - Pass Details

Date: 20 January 2026
Orbit: 598 x 623 km, 82.5° (Epoch: 18 February)

Event Time Altitude Azimuth Distance (km) Brightness Sun altitude
Exits shadow 05:47:33 29° 312° (NW) 1,152 4.5 -17.2°
Drops below altitude 10° 05:50:37 10° 352° (N) 1,993 6.0 -16.7°
Sets 05:53:04 0° 3° (N) 2,899 6.9 -16.3°
